{"data":{"norad_id":68332,"epoch":"2026-09-19T22:24:27.803232Z","epoch_age_seconds":97298,"freshness":"FRESH","line1":"1 68332U 26059M   26262.93365513  .00025842  00000+0  77318-3 0  9996","line2":"2 68332  53.1574 164.0171 0000395 141.7722 218.3309 15.34406251 27949","mean_motion":15.34406251,"eccentricity":3.95e-5,"inclination_deg":53.1574,"raan_deg":164.0171,"arg_perigee_deg":141.7722,"mean_anomaly_deg":218.3309,"bstar":0.00077318,"rev_number":2794,"period_min":93.847375756031,"perigee_km":462.41444852523,"apogee_km":462.95487343645,"semimajor_km":6840.8216609808,"source":"CELESTRAK","updated_at":"2026-09-20T09:00:43.886130Z"}}